Change the Weather History Date:

Wednesday, August 28, 2013

  Actual Average Record
Temperature  
Mean Temperature 42 °F 37 °F  
Max Temperature 45 °F 42 °F 58 °F (1959)
Min Temperature 38 °F 33 °F 21 °F (1922)
Degree Days  
Heating Degree Days 23 28  
Month to date heating degree days 690 723  
Since 1 June heating degree days 2097 2350  
Since 1 July heating degree days 1319 1470  
Cooling Degree Days 0    
Month to date cooling degree days 0  
Year to date cooling degree days 0  
Since 1 June cooling degree days 0  
Moisture  
Dew Point 39 °F    
Average Humidity 0    
Maximum Humidity 0    
Minimum Humidity 0    
Precipitation  
Precipitation 0.01 in 0.04 in 0.18 in (2011)
Month to date precipitation 1.29 0.96  
Year to date precipitation 4.96 2.96  
Snow  
Snow 0.00 in 0.00 in 0.40 in (1967)
Month to date snowfall 0.5 0.7  
Since 1 June snowfall 0.8 1.6  
Since 1 July snowfall 0.5 0.9  
Snow Depth 0.00 in    
Sea Level Pressure  
Sea Level Pressure 29.61 in    
Wind  
Wind Speed 7 mph (East)    
Max Wind Speed 13 mph    
Max Gust Speed 15 mph    
Visibility 7 miles    
Events Rain    
T = Trace of Precipitation, MM = Missing Value Source: NWS Daily Summary

Daily Weather History Graph

Daily Weather History Graph

Search for Another Location

Airport or City:

Trip Planner

Search our weather history database for the weather conditions in past years. The results will help you decide how hot, cold, wet, or windy it might be!

Date:

Astronomy

Aug. 28, 2013 Rise Set
Actual Time 6:17 AM AKDT 10:35 PM AKDT
Civil Twilight 4:45 AM AKDT 12:04 AM AKDT
Nautical Twilight Sun does not rise Sun does not rise
Astronomical Twilight Sun does not rise Sun does not rise
Moon No Moon Rise No Moon Set
Length of Visible Light 19h 19m
Length of Day
16h 18m
Last Quarter, 46% of the Moon is Illuminated
Aug 28
Last Quarter
Sep 5
New
Sep 12
First Quarter
Sep 19
Full
Sep 26
Last Quarter

Hourly Weather History & Observations

Time (AKDT) Temp. Windchill Dew Point Humidity Pressure Visibility Wind Dir Wind Speed Gust Speed Precip Events Conditions
12:00 AM 37.4 °F 29.3 °F 37.4 °F 100% 29.61 in 1.5 mi East 12.7 mph - N/A   Overcast
12:09 AM 37.4 °F 30.3 °F 37.4 °F 100% 29.61 in 2.0 mi East 10.4 mph - N/A   Overcast
12:48 AM 37.4 °F 29.8 °F 37.4 °F 100% 29.61 in 3.0 mi East 11.5 mph - N/A   Overcast
12:53 AM 37.9 °F 30.5 °F 37.0 °F 97% 29.61 in 2.5 mi East 11.5 mph - N/A   Overcast
1:05 AM 37.4 °F 29.3 °F 37.4 °F 100% 29.60 in 3.0 mi East 12.7 mph - N/A   Overcast
1:44 AM 39.2 °F 33.0 °F 37.4 °F 93% 29.61 in 7.0 mi ESE 9.2 mph - N/A   Overcast
1:53 AM 39.0 °F 31.8 °F 37.9 °F 96% 29.60 in 8.0 mi East 11.5 mph - N/A   Overcast
2:53 AM 39.9 °F 33.9 °F 37.9 °F 93% 29.60 in 10.0 mi East 9.2 mph - N/A   Overcast
3:53 AM 39.9 °F 35.8 °F 37.9 °F 93% 29.60 in 8.0 mi East 5.8 mph - 0.00 in Rain Light Rain
4:53 AM 39.9 °F 33.9 °F 39.0 °F 97% 29.59 in 8.0 mi East 9.2 mph - 0.01 in   Overcast
5:49 AM 39.2 °F 33.6 °F 37.4 °F 93% 29.59 in 8.0 mi East 8.1 mph - N/A   Overcast
5:53 AM 39.9 °F 34.5 °F 37.9 °F 93% 29.59 in 8.0 mi East 8.1 mph - N/A   Overcast
6:53 AM 39.9 °F 33.9 °F 37.9 °F 93% 29.58 in 9.0 mi East 9.2 mph - 0.00 in   Overcast
7:53 AM 39.9 °F 33.4 °F 39.0 °F 97% 29.58 in 6.0 mi ENE 10.4 mph - 0.00 in Rain Light Rain
8:53 AM 39.9 °F 34.5 °F 39.0 °F 97% 29.58 in 5.0 mi East 8.1 mph - 0.00 in   Overcast
9:51 AM 41.0 °F 35.2 °F 39.2 °F 93% 29.58 in 7.0 mi East 9.2 mph - 0.00 in   Overcast
9:53 AM 41.0 °F 34.7 °F 39.0 °F 93% 29.58 in 7.0 mi East 10.4 mph - 0.00 in   Overcast
10:02 AM 41.0 °F 36.4 °F 39.2 °F 93% 29.58 in 7.0 mi East 6.9 mph - N/A   Overcast
10:26 AM 41.0 °F 36.4 °F 39.2 °F 93% 29.58 in 7.0 mi East 6.9 mph - N/A   Overcast
10:53 AM 41.0 °F 36.4 °F 39.0 °F 93% 29.58 in 8.0 mi East 6.9 mph - 0.00 in Rain Light Rain
11:53 AM 41.0 °F 35.8 °F 39.0 °F 93% 29.59 in 7.0 mi East 8.1 mph - 0.00 in Rain Light Rain
12:53 PM 42.1 °F 37.1 °F 39.9 °F 92% 29.60 in 6.0 mi ENE 8.1 mph - 0.00 in Rain Light Rain
1:39 PM 42.8 °F 39.3 °F 39.2 °F 87% 29.60 in 8.0 mi East 5.8 mph - 0.00 in   Overcast
1:53 PM 43.0 °F 38.8 °F 39.9 °F 89% 29.61 in 8.0 mi East 6.9 mph - 0.00 in   Overcast
2:53 PM 45.0 °F 41.8 °F 42.1 °F 90% 29.61 in 8.0 mi East 5.8 mph - N/A   Overcast
3:53 PM 42.1 °F 37.1 °F 39.9 °F 92% 29.60 in 5.0 mi ENE 8.1 mph - 0.00 in Rain Light Rain
4:53 PM 41.0 °F 37.1 °F 39.0 °F 93% 29.62 in 10.0 mi East 5.8 mph - 0.00 in   Overcast
5:53 PM 41.0 °F 37.1 °F 39.0 °F 93% 29.63 in 10.0 mi East 5.8 mph - 0.00 in   Overcast
6:53 PM 41.0 °F 37.1 °F 39.0 °F 93% 29.64 in 7.0 mi West 5.8 mph - 0.00 in   Overcast
7:24 PM 41.0 °F 38.0 °F 39.2 °F 93% 29.64 in 1.5 mi WSW 4.6 mph - 0.00 in   Light Drizzle
7:41 PM 39.2 °F 35.9 °F 39.2 °F 100% 29.64 in 8.0 mi West 4.6 mph - 0.00 in   Light Drizzle
7:53 PM 39.9 °F 36.7 °F 39.0 °F 97% 29.64 in 10.0 mi West 4.6 mph - 0.00 in   Overcast
8:53 PM 41.0 °F 37.1 °F 37.9 °F 89% 29.65 in 10.0 mi WSW 5.8 mph - N/A   Overcast
9:27 PM 39.2 °F 35.0 °F 39.2 °F 100% 29.65 in 2.5 mi West 5.8 mph - 0.00 in   Light Drizzle
9:51 PM 39.2 °F 35.0 °F 37.4 °F 93% 29.66 in 4.0 mi WSW 5.8 mph - 0.00 in   Light Drizzle
9:53 PM 39.9 °F 35.8 °F 37.9 °F 93% 29.66 in 4.0 mi WSW 5.8 mph - 0.00 in   Light Drizzle
10:05 PM 39.2 °F 34.2 °F 37.4 °F 93% 29.66 in 10.0 mi SW 6.9 mph - 0.00 in   Light Drizzle
10:53 PM 39.0 °F 34.8 °F 37.9 °F 96% 29.67 in 10.0 mi West 5.8 mph - 0.00 in   Overcast
11:53 PM 39.0 °F 34.0 °F 37.0 °F 93% 29.68 in 10.0 mi West 6.9 mph - N/A   Overcast